Weather History for Kiana, AK

Change the Weather History Date:

Thursday, May 16, 2013

  Actual Average (PASK) Record (PASK)
Temperature  
Mean Temperature 20 °F -  
Max Temperature 10 °F 40 °F 51 °F (2004)
Min Temperature 14 °F 25 °F 10 °F (2013)
Degree Days  
Heating Degree Days 45    
Moisture  
Dew Point 16 °F    
Average Humidity 82    
Maximum Humidity 96    
Minimum Humidity 65    
Precipitation  
Precipitation 0.00 in - - ()
Sea Level Pressure  
Sea Level Pressure 29.51 in    
Wind  
Wind Speed 11 mph (South)    
Max Wind Speed 17 mph    
Max Gust Speed 26 mph    
Visibility 5 miles    
Events Snow    
Averages and records for this station are not official NWS values.
T = Trace of Precipitation, MM = Missing Value Source: NWS Daily Summary

Daily Weather History Graph

Daily Weather History Graph

Search for Another Location

Airport:

Trip Planner

Search our weather history database for the weather conditions in past years. The results will help you decide how hot, cold, wet, or windy it might be!

Date:

Astronomy

May. 16, 2013 Rise Set
Actual Time 4:41 AM AKDT 12:39 AM AKDT
Civil Twilight Sun does not rise Sun does not rise
Nautical Twilight Sun does not rise Sun does not rise
Astronomical Twilight Sun does not rise Sun does not rise
Moon 11:44 AM AKDT (5/16) 3:52 AM AKDT (5/16)
Length of Visible Light 24h 00m
Length of Day
19h 57m
Waxing Crescent, 37% of the Moon is Illuminated
May 16
Waxing Crescent
May 17
First Quarter
May 24
Full
May 31
Last Quarter
Jun 8
New

Hourly Weather History & Observations

Time (AKDT) Temp. Windchill Dew Point Humidity Pressure Visibility Wind Dir Wind Speed Gust Speed Precip Events Conditions
12:01 AM 25.0 °F 17.1 °F 21.0 °F 85% 29.64 in 9.0 mi SE 6.9 mph - 0.00 in Snow Light Snow
1:01 AM 24.8 °F 16.9 °F 21.2 °F 86% 29.50 in 9.0 mi ESE 6.9 mph - 0.00 in Snow Light Snow
1:35 AM 24.8 °F 15.3 °F 21.2 °F 86% 29.49 in 9.0 mi ESE 9.2 mph - 0.00 in Snow Light Snow
2:01 AM 24.1 °F 15.2 °F 21.0 °F 88% 29.61 in 5.0 mi SSE 8.1 mph - 0.00 in Snow Light Snow
2:40 AM 24.8 °F 16.1 °F 21.2 °F 86% 29.46 in 9.0 mi ESE 8.1 mph - 0.00 in Snow Light Snow
2:49 AM 24.8 °F 15.3 °F 21.2 °F 86% 29.46 in 8.0 mi SE 9.2 mph - 0.00 in Snow Light Snow
3:01 AM 25.0 °F 15.5 °F 21.0 °F 85% 29.59 in 6.0 mi SE 9.2 mph - 0.00 in Snow Light Snow
3:52 AM 24.8 °F 15.3 °F 21.2 °F 86% 29.43 in 2.5 mi ESE 9.2 mph - 0.00 in Snow Light Snow
4:01 AM 24.1 °F 16.0 °F 21.9 °F 91% 29.56 in 2.5 mi ESE 6.9 mph - 0.00 in Snow Light Snow
5:01 AM 24.1 °F 13.7 °F 23.0 °F 96% 29.54 in 2.5 mi ESE 10.4 mph - 0.00 in Snow Light Snow
5:27 AM 24.8 °F 14.6 °F 23.0 °F 93% 29.40 in 3.0 mi ESE 10.4 mph - 0.00 in Snow Light Snow
5:38 AM 24.8 °F 14.6 °F 23.0 °F 93% 29.39 in 2.0 mi ESE 10.4 mph - 0.00 in Snow Light Snow
6:01 AM 24.8 °F 14.6 °F 23.0 °F 93% 29.39 in 1.8 mi ESE 10.4 mph 18.4 mph 0.00 in Snow Light Snow
6:09 AM 24.8 °F 13.4 °F 23.0 °F 93% 29.38 in 1.5 mi ESE 12.7 mph - 0.00 in Snow Light Snow
6:41 AM 24.1 °F 13.1 °F 23.0 °F 96% 29.50 in 1.8 mi ESE 11.5 mph - 0.00 in Snow Light Snow
7:01 AM 24.1 °F 13.7 °F 23.0 °F 96% 29.50 in 1.2 mi SE 10.4 mph - 0.00 in Snow Light Snow
7:18 AM 24.8 °F 15.3 °F 23.0 °F 93% 29.37 in 2.5 mi SE 9.2 mph - 0.00 in Snow Light Snow
7:25 AM 24.8 °F 14.0 °F 23.0 °F 93% 29.36 in 8.0 mi SE 11.5 mph - 0.00 in Snow Light Snow
8:01 AM 26.1 °F 13.1 °F 23.0 °F 88% 29.48 in 3.0 mi SE 17.3 mph 24.2 mph 0.00 in Snow Light Snow
8:16 AM 26.6 °F 15.7 °F 23.0 °F 86% 29.35 in 1.8 mi SSE 12.7 mph 21.9 mph 0.00 in Snow Light Snow
8:24 AM 26.6 °F 16.8 °F 23.0 °F 86% 29.35 in 3.0 mi SE 10.4 mph 20.7 mph 0.00 in Snow Light Snow
8:37 AM 26.6 °F 14.3 °F 23.0 °F 86% 29.35 in 1.8 mi SSE 16.1 mph 20.7 mph 0.00 in Snow Light Snow
8:44 AM 26.6 °F 15.2 °F 23.0 °F 86% 29.35 in 1.0 mi SSE 13.8 mph 21.9 mph 0.00 in Snow Light Snow
9:01 AM 26.6 °F 15.2 °F 23.0 °F 86% 29.35 in 3.0 mi SSE 13.8 mph - 0.00 in Snow Light Snow
9:12 AM 24.8 °F 13.4 °F 21.2 °F 86% 29.36 in 1.5 mi SW 12.7 mph 21.9 mph 0.00 in Snow Light Snow
9:23 AM 21.2 °F 7.8 °F 17.6 °F 86% 29.37 in 2.0 mi SSW 15.0 mph 20.7 mph 0.00 in Snow Light Snow
9:35 AM 19.4 °F 5.5 °F 15.8 °F 86% 29.38 in 4.0 mi SSW 15.0 mph 21.9 mph 0.00 in Snow Light Snow
9:52 AM 17.6 °F 3.2 °F 14.0 °F 86% 29.40 in 3.0 mi SW 15.0 mph 24.2 mph 0.00 in Snow Light Snow
9:54 AM 17.6 °F 3.2 °F 12.2 °F 79% 29.40 in 2.5 mi SSW 15.0 mph 24.2 mph 0.00 in Snow Light Snow
9:58 AM 17.6 °F 2.2 °F 12.2 °F 79% 29.40 in 1.8 mi SSW 17.3 mph 23.0 mph 0.00 in Snow Light Snow
10:01 AM 17.1 °F 2.0 °F 12.0 °F 81% 29.53 in 1.8 mi SSW 16.1 mph 23.0 mph 0.00 in Snow Light Snow
10:13 AM 15.8 °F 0.9 °F 10.4 °F 79% 29.41 in 1.8 mi SW 15.0 mph 23.0 mph 0.00 in Snow Light Snow
10:36 AM 14.0 °F -2.0 °F 10.4 °F 86% 29.43 in 3.0 mi SSW 16.1 mph 24.2 mph 0.00 in Snow Light Snow
11:01 AM 14.0 °F -1.4 °F 8.6 °F 79% 29.44 in 5.0 mi SSW 15.0 mph 24.2 mph 0.00 in Snow Light Snow
11:15 AM 14.0 °F 0.5 °F 8.6 °F 79% 29.45 in 6.0 mi SW 11.5 mph 26.5 mph 0.00 in Snow Light Snow
11:24 AM 15.1 °F -1.1 °F 8.1 °F 74% 29.59 in 7.0 mi WSW 17.3 mph 25.3 mph 0.00 in Snow Light Snow
11:32 AM 15.8 °F -0.2 °F 8.6 °F 73% 29.46 in 8.0 mi SW 17.3 mph 21.9 mph 0.00 in Snow Light Snow
11:50 AM 17.6 °F 4.3 °F 8.6 °F 68% 29.48 in 9.0 mi WSW 12.7 mph 17.3 mph 0.00 in Snow Light Snow
12:01 PM 18.0 °F 4.2 °F 9.0 °F 68% 29.61 in 9.0 mi SW 13.8 mph - 0.00 in Snow Light Snow
1:01 PM 17.1 °F 3.6 °F 9.0 °F 71% 29.63 in 10.0 mi SW 12.7 mph 20.7 mph 0.00 in   Overcast
2:01 PM 17.1 °F 4.3 °F 9.0 °F 71% 29.66 in 7.0 mi SSW 11.5 mph 19.6 mph 0.00 in Snow Light Snow
3:01 PM 17.1 °F 1.5 °F 9.0 °F 71% 29.67 in 8.0 mi SSW 17.3 mph 25.3 mph 0.00 in Snow Light Snow
4:01 PM 18.0 °F 3.6 °F 8.1 °F 65% 29.68 in 10.0 mi SSW 15.0 mph 20.7 mph 0.00 in   Overcast
5:01 PM 18.0 °F 3.1 °F 8.1 °F 65% 29.69 in 9.0 mi SSW 16.1 mph 23.0 mph 0.00 in Snow Light Snow
6:01 PM 18.0 °F 3.1 °F 10.0 °F 71% 29.69 in 10.0 mi SSW 16.1 mph 21.9 mph 0.00 in   Overcast
7:01 PM 17.1 °F 3.0 °F 9.0 °F 71% 29.70 in 9.0 mi SSW 13.8 mph 21.9 mph 0.00 in Snow Light Snow
7:46 PM 17.6 °F 2.2 °F 10.4 °F 73% 29.57 in 2.5 mi SSW 17.3 mph 21.9 mph 0.00 in Snow Light Snow
8:01 PM 15.8 °F 1.4 °F 10.4 °F 79% 29.58 in 9.0 mi SSW 13.8 mph - 0.00 in Snow Light Snow
8:37 PM 15.8 °F 4.2 °F 8.6 °F 73% 29.58 in 9.0 mi SSW 9.2 mph 20.7 mph 0.00 in Snow Light Snow
9:01 PM 15.8 °F 4.2 °F 10.4 °F 79% 29.59 in 8.0 mi SSW 9.2 mph 19.6 mph 0.00 in Snow Light Snow
9:33 PM 15.8 °F 3.4 °F 10.4 °F 79% 29.59 in 9.0 mi SSW 10.4 mph - 0.00 in Snow Light Snow
10:01 PM 15.1 °F 2.5 °F 10.9 °F 84% 29.73 in 9.0 mi SSW 10.4 mph - 0.00 in Snow Light Snow
10:37 PM 15.8 °F 6.1 °F 10.4 °F 79% 29.60 in 5.0 mi SSW 6.9 mph - 0.00 in Snow Light Snow
11:01 PM 15.1 °F 1.8 °F 10.0 °F 80% 29.73 in 9.0 mi SW 11.5 mph - 0.00 in Snow Light Snow
11:09 PM 15.8 °F 4.2 °F 10.4 °F 79% 29.60 in 9.0 mi SW 9.2 mph - 0.00 in Snow Light Snow
11:17 PM 14.0 °F 2.9 °F 10.4 °F 86% 29.60 in 9.0 mi SW 8.1 mph - 0.00 in Snow Light Snow